QPF
0.02 0.04 0.03 0.02 0.02 0.02 0.02 0.01 0.02 0.05 0.13 0.18 0.23 0.25 0.23 0.22 0.19 0.14 0.09 0.07 0.05 0.04 0.03 0.02 0.02 0.02 0.02 0.01 0.01 0.01 0.01 0.01 0.01 0.00 0.00 0.00 0.00 0.00 0.00 0.00 0.00 0.00 0.00 0.00
0.00 0.01 0.01 0.02 0.02 0.02 0.03 0.02 0.04 0.08 0.20 0.30 0.35 0.30 0.27 0.25 0.18 0.12 0.10 0.09 0.07 0.05 0.04 0.03 0.03 0.03 0.02 0.02 0.02 0.01 0.01 0.01 0.01 0.01 0.01 0.01 0.01 0.01 0.01 0.01 0.01 0.01 0.01 0.00
0.01 0.00 0.01 0.03 0.03 0.03 0.04 0.05 0.05 0.10 0.18 0.23 0.26 0.27 0.22 0.19 0.18 0.17 0.16 0.15 0.13 0.10 0.08 0.06 0.05 0.04 0.03 0.02 0.02 0.01 0.01 0.01 0.01 0.01 0.01 0.01 0.01 0.01 0.01 0.01 0.01 0.01 0.01 0.01
0.02 0.03 0.06 0.07 0.04 0.03 0.05 0.08 0.08 0.12 0.14 0.16 0.17 0.18 0.17 0.17 0.18 0.20 0.21 0.19 0.15 0.11 0.09 0.07 0.05 0.04 0.03 0.03 0.03 0.02 0.02 0.02 0.01 0.01 0.01 0.01 0.01 0.02 0.02 0.02 0.02 0.02 0.01 0.01
0.05 0.07 0.09 0.12 0.07 0.04 0.07 0.12 0.09 0.10 0.08 0.09 0.09 0.10 0.10 0.11 0.13 0.14 0.13 0.12 0.11 0.10 0.08 0.06 0.05 0.05 0.05 0.04 0.03 0.02 0.02 0.01 0.01 0.01 0.01 0.01 0.02 0.02 0.02 0.02 0.02 0.01 0.01 0.01
0.06 0.08 0.13 0.17 0.08 0.03 0.06 0.14 0.10 0.09 0.08 0.08 0.08 0.09 0.09 0.08 0.08 0.09 0.10 0.10 0.08 0.07 0.07 0.06 0.05 0.04 0.03 0.02 0.02 0.01 0.01 0.01 0.01 0.01 0.01 0.02 0.02 0.02 0.02 0.02 0.02 0.01 0.01 0.01
0.11 0.12 0.14 0.07 0.02 0.05 0.11 0.15 0.13 0.10 0.08 0.09 0.10 0.09 0.07 0.07 0.08 0.08 0.08 0.08 0.06 0.06 0.05 0.04 0.04 0.03 0.03 0.02 0.02 0.01 0.01 0.01 0.01 0.01 0.01 0.01 0.02 0.02 0.02 0.03 0.03 0.03 0.03 0.03
0.12 0.13 0.14 0.05 0.02 0.06 0.09 0.11 0.11 0.09 0.08 0.06 0.05 0.05 0.05 0.06 0.07 0.07 0.06 0.05 0.05 0.04 0.04 0.03 0.03 0.03 0.03 0.03 0.02 0.01 0.01 0.01 0.01 0.01 0.01 0.01 0.03 0.04 0.04 0.05 0.05 0.04 0.04 0.03
0.10 0.11 0.09 0.04 0.04 0.05 0.07 0.09 0.09 0.08 0.06 0.04 0.04 0.05 0.05 0.05 0.05 0.05 0.04 0.04 0.04 0.03 0.03 0.02 0.02 0.03 0.03 0.03 0.02 0.02 0.03 0.02 0.02 0.01 0.01 0.02 0.03 0.04 0.04 0.05 0.05 0.03 0.03 0.02
0.10 0.10 0.07 0.04 0.04 0.04 0.05 0.05 0.05 0.05 0.03 0.03 0.03 0.03 0.03 0.03 0.03 0.04 0.04 0.03 0.03 0.03 0.03 0.02 0.02 0.02 0.02 0.02 0.02 0.03 0.04 0.03 0.02 0.03 0.03 0.03 0.03 0.03 0.03 0.03 0.02 0.02 0.02 0.02
0.09 0.10 0.08 0.06 0.04 0.04 0.03 0.03 0.03 0.03 0.03 0.02 0.02 0.02 0.02 0.03 0.03 0.03 0.03 0.03 0.03 0.03 0.03 0.02 0.02 0.01 0.01 0.01 0.01 0.03 0.03 0.03 0.02 0.02 0.03 0.04 0.05 0.02 0.01 0.01 0.00 0.00 0.01 0.01
0.10 0.10 0.09 0.06 0.03 0.02 0.02 0.02 0.02 0.02 0.01 0.01 0.01 0.01 0.02 0.03 0.03 0.03 0.02 0.02 0.03 0.03 0.02 0.01 0.01 0.00 0.00 0.00 0.01 0.02 0.03 0.03 0.02 0.01 0.02 0.03 0.06 0.04 0.01 0.00 0.00 0.00 0.00 0.00
0.04 0.03 0.02 0.02 0.01 0.01 0.01 0.01 0.01 0.01 0.01 0.01 0.01 0.02 0.03 0.04 0.03 0.02 0.02 0.02 0.02 0.02 0.01 0.00 0.00 0.00 0.00 0.00 0.00 0.01 0.02 0.02 0.02 0.02 0.02 0.03 0.05 0.07 0.05 0.02 0.00 0.00 0.00 0.00
0.01 0.02 0.04 0.04 0.02 0.01 0.01 0.01 0.01 0.01 0.01 0.01 0.02 0.02 0.02 0.02 0.01 0.01 0.01 0.01 0.00 0.00 0.00 0.00 0.00 0.00 0.00 0.00 0.00 0.01 0.02 0.01 0.01 0.02 0.02 0.03 0.04 0.04 0.04 0.04 0.03 0.02 0.01 0.00
0.02 0.03 0.04 0.03 0.02 0.01 0.01 0.00 0.01 0.01 0.01 0.02 0.02 0.01 0.01 0.01 0.01 0.01 0.01 0.00 0.00 0.00 0.00 0.01 0.01 0.00 0.00 0.00 0.00 0.01 0.02 0.03 0.01 0.01 0.01 0.02 0.02 0.02 0.02 0.02 0.03 0.02 0.02 0.01
0.01 0.02 0.02 0.02 0.01 0.01 0.01 0.01 0.01 0.01 0.02 0.02 0.01 0.01 0.01 0.00 0.01 0.01 0.00 0.00 0.00 0.01 0.00 0.00 0.00 0.00 0.00 0.00 0.00 0.01 0.01 0.00 0.00 0.01 0.01 0.01 0.02 0.01 0.01 0.02 0.02 0.02 0.02 0.01
0.03 0.03 0.04 0.03 0.02 0.02 0.02 0.02 0.01 0.01 0.01 0.01 0.01 0.00 0.00 0.00 0.01 0.01 0.00 0.00 0.00 0.00 0.00 0.00 0.00 0.00 0.00 0.00 0.00 0.00 0.01 0.00 0.00 0.00 0.01 0.01 0.01 0.01 0.01 0.01 0.01 0.02 0.02 0.01
0.02 0.02 0.02 0.02 0.01 0.01 0.01 0.01 0.01 0.01 0.01 0.01 0.00 0.00 0.00 0.01 0.01 0.00 0.00 0.00 0.00 0.00 0.00 0.00 0.00 0.00 0.00 0.00 0.00 0.00 0.00 0.00 0.00 0.00 0.00 0.00 0.00 0.01 0.01 0.01 0.01 0.02 0.02 0.01
0.01 0.01 0.01 0.01 0.01 0.01 0.01 0.01 0.01 0.00 0.00 0.00 0.00 0.00 0.00 0.00 0.00 0.00 0.00 0.00 0.00 0.00 0.00 0.00 0.00 0.00 0.00 0.00 0.00 0.00 0.00 0.00 0.00 0.00 0.00 0.00 0.00 0.00 0.01 0.01 0.01 0.01 0.01 0.02
0.01 0.01 0.01 0.01 0.01 0.01 0.01 0.00 0.00 0.00 0.00 0.00 0.00 0.00 0.00 0.00 0.00 0.00 0.00 0.00 0.00 0.00 0.00 0.00 0.00 0.00 0.00 0.00 0.00 0.00 0.00 0.00 0.00 0.00 0.00 0.00 0.00 0.00 0.00 0.01 0.01 0.01 0.02 0.02
0.01 0.00 0.01 0.01 0.00 0.00 0.00 0.00 0.00 0.00 0.00 0.00 0.00 0.00 0.00 0.00 0.00 0.00 0.00 0.00 0.00 0.00 0.00 0.00 0.00 0.00 0.00 0.00 0.00 0.00 0.00 0.00 0.00 0.00 0.00 0.00 0.00 0.00 0.00 0.00 0.01 0.01 0.01 0.02
0.01 0.00 0.00 0.00 0.00 0.00 0.00 0.00 0.00 0.00 0.00 0.00 0.00 0.00 0.00 0.00 0.00 0.00 0.00 0.00 0.00 0.00 0.00 0.00 0.00 0.00 0.00 0.00 0.00 0.00 0.00 0.00 0.00 0.00 0.00 0.00 0.00 0.00 0.00 0.00 0.00 0.00 0.01 0.01
0.01 0.00 0.00 0.00 0.00 0.00 0.00 0.00 0.00 0.00 0.00 0.00 0.00 0.00 0.00 0.00 0.00 0.00 0.00 0.00 0.00 0.00 0.00 0.00 0.00 0.00 0.00 0.00 0.00 0.00 0.00 0.00 0.00 0.00 0.00 0.00 0.00 0.00 0.00 0.00 0.00 0.00 0.00 0.00
0.01 0.01 0.00 0.00 0.00 0.00 0.00 0.00 0.00 0.00 0.00 0.00 0.00 0.00 0.00 0.00 0.00 0.00 0.00 0.00 0.00 0.00 0.00 0.00 0.00 0.00 0.00 0.00 0.00 0.00 0.00 0.00 0.00 0.00 0.00 0.00 0.00 0.00 0.00 0.00 0.00 0.00 0.00 0.00
0.01 0.01 0.01 0.01 0.01 0.00 0.00 0.00 0.00 0.00 0.00 0.00 0.00 0.00 0.00 0.00 0.00 0.00 0.00 0.00 0.00 0.00 0.00 0.00 0.00 0.00 0.00 0.00 0.00 0.00 0.00 0.00 0.00 0.00 0.00 0.00 0.00 0.00 0.00 0.00 0.00 0.00 0.00 0.00
0.03 0.03 0.02 0.01 0.01 0.00 0.00 0.00 0.00 0.00 0.00 0.00 0.00 0.00 0.00 0.00 0.00 0.00 0.00 0.00 0.00 0.00 0.00 0.00 0.00 0.00 0.00 0.00 0.00 0.00 0.00 0.00 0.00 0.00 0.00 0.00 0.00 0.00 0.00 0.00 0.00 0.00 0.00 0.00
0.04 0.03 0.02 0.01 0.00 0.00 0.00 0.00 0.00 0.00 0.00 0.00 0.00 0.00 0.00 0.00 0.00 0.00 0.00 0.00 0.00 0.00 0.00 0.00 0.00 0.00 0.00 0.00 0.00 0.00 0.00 0.00 0.00 0.00 0.00 0.00 0.00 0.00 0.00 0.00 0.00 0.00 0.00 0.00
MSLP
1009.12 1009.01 1008.91 1008.85 1008.84 1008.90 1009.04 1009.27 1009.61 1010.05 1010.59 1011.24 1011.98 1012.79 1013.64 1014.49 1015.31 1016.05 1016.70 1017.23 1017.64 1017.95 1018.19 1018.39 1018.60 1018.83 1019.12 1019.44 1019.80 1020.15 1020.48 1020.75 1020.95 1021.06 1021.12 1021.13 1021.14 1021.17 1021.26 1021.42 1021.65 1021.91 1022.20 1022.46
1009.68 1009.59 1009.48 1009.40 1009.36 1009.41 1009.57 1009.86 1010.28 1010.83 1011.51 1012.30 1013.16 1014.07 1014.97 1015.84 1016.64 1017.33 1017.91 1018.36 1018.71 1018.97 1019.18 1019.37 1019.57 1019.80 1020.07 1020.38 1020.69 1020.98 1021.24 1021.43 1021.55 1021.60 1021.59 1021.56 1021.54 1021.56 1021.64 1021.79 1022.00 1022.26 1022.54 1022.79
1010.30 1010.25 1010.17 1010.10 1010.07 1010.13 1010.31 1010.64 1011.12 1011.76 1012.54 1013.42 1014.37 1015.34 1016.28 1017.15 1017.91 1018.56 1019.07 1019.46 1019.74 1019.94 1020.11 1020.27 1020.45 1020.65 1020.89 1021.15 1021.41 1021.64 1021.83 1021.95 1022.01 1022.01 1021.97 1021.92 1021.89 1021.90 1021.97 1022.11 1022.31 1022.55 1022.80 1023.03
1010.98 1010.99 1010.95 1010.91 1010.90 1010.97 1011.17 1011.53 1012.05 1012.74 1013.57 1014.50 1015.49 1016.48 1017.42 1018.27 1019.00 1019.59 1020.04 1020.37 1020.60 1020.75 1020.88 1021.01 1021.15 1021.32 1021.52 1021.73 1021.93 1022.11 1022.24 1022.32 1022.34 1022.32 1022.26 1022.21 1022.17 1022.19 1022.26 1022.38 1022.56 1022.77 1022.99 1023.18
1011.67 1011.74 1011.76 1011.75 1011.76 1011.85 1012.07 1012.44 1012.97 1013.67 1014.50 1015.44 1016.42 1017.39 1018.31 1019.13 1019.81 1020.35 1020.76 1021.04 1021.22 1021.35 1021.44 1021.54 1021.65 1021.79 1021.95 1022.12 1022.28 1022.41 1022.50 1022.55 1022.56 1022.53 1022.48 1022.43 1022.41 1022.43 1022.49 1022.60 1022.75 1022.93 1023.10 1023.25
1012.34 1012.46 1012.52 1012.55 1012.59 1012.70 1012.91 1013.28 1013.80 1014.48 1015.29 1016.19 1017.14 1018.07 1018.94 1019.71 1020.35 1020.85 1021.21 1021.46 1021.62 1021.73 1021.81 1021.89 1021.98 1022.09 1022.22 1022.35 1022.48 1022.58 1022.65 1022.69 1022.69 1022.67 1022.63 1022.61 1022.60 1022.62 1022.69 1022.78 1022.90 1023.04 1023.16 1023.27
1012.94 1013.10 1013.19 1013.25 1013.32 1013.44 1013.66 1014.01 1014.51 1015.16 1015.92 1016.77 1017.66 1018.53 1019.35 1020.06 1020.65 1021.12 1021.46 1021.69 1021.84 1021.94 1022.02 1022.10 1022.18 1022.28 1022.38 1022.49 1022.59 1022.68 1022.73 1022.76 1022.77 1022.76 1022.75 1022.75 1022.76 1022.79 1022.85 1022.93 1023.03 1023.13 1023.22 1023.30
1013.44 1013.63 1013.75 1013.84 1013.93 1014.07 1014.29 1014.64 1015.11 1015.72 1016.43 1017.22 1018.04 1018.85 1019.60 1020.26 1020.81 1021.25 1021.57 1021.80 1021.96 1022.07 1022.16 1022.24 1022.32 1022.40 1022.49 1022.58 1022.66 1022.73 1022.78 1022.81 1022.82 1022.83 1022.84 1022.86 1022.90 1022.94 1023.01 1023.08 1023.16 1023.24 1023.31 1023.36
1013.85 1014.05 1014.21 1014.33 1014.45 1014.61 1014.85 1015.19 1015.64 1016.21 1016.87 1017.60 1018.35 1019.09 1019.78 1020.38 1020.90 1021.31 1021.63 1021.86 1022.03 1022.16 1022.26 1022.34 1022.43 1022.51 1022.58 1022.65 1022.71 1022.76 1022.80 1022.83 1022.85 1022.88 1022.91 1022.95 1023.01 1023.08 1023.16 1023.24 1023.31 1023.39 1023.45 1023.50
1014.17 1014.41 1014.59 1014.76 1014.92 1015.12 1015.38 1015.72 1016.16 1016.69 1017.30 1017.97 1018.65 1019.32 1019.94 1020.50 1020.97 1021.37 1021.67 1021.91 1022.09 1022.24 1022.35 1022.44 1022.53 1022.60 1022.66 1022.71 1022.74 1022.77 1022.80 1022.82 1022.85 1022.89 1022.95 1023.03 1023.11 1023.21 1023.31 1023.41 1023.50 1023.58 1023.65 1023.70
1014.46 1014.73 1014.96 1015.18 1015.39 1015.63 1015.92 1016.28 1016.71 1017.21 1017.78 1018.37 1018.98 1019.58 1020.14 1020.63 1021.07 1021.43 1021.73 1021.97 1022.16 1022.31 1022.43 1022.53 1022.61 1022.66 1022.70 1022.73 1022.74 1022.75 1022.76 1022.78 1022.82 1022.88 1022.96 1023.07 1023.20 1023.34 1023.47 1023.61 1023.73 1023.83 1023.91 1023.97
1014.74 1015.06 1015.36 1015.63 1015.91 1016.20 1016.53 1016.90 1017.32 1017.79 1018.30 1018.83 1019.36 1019.88 1020.36 1020.80 1021.18 1021.51 1021.79 1022.02 1022.21 1022.37 1022.49 1022.59 1022.65 1022.69 1022.71 1022.71 1022.69 1022.68 1022.68 1022.69 1022.74 1022.83 1022.95 1023.10 1023.27 1023.46 1023.65 1023.83 1023.98 1024.11 1024.22 1024.29
1015.04 1015.42 1015.78 1016.14 1016.48 1016.82 1017.18 1017.57 1017.97 1018.41 1018.86 1019.31 1019.76 1020.20 1020.60 1020.97 1021.30 1021.59 1021.85 1022.07 1022.25 1022.40 1022.52 1022.61 1022.66 1022.68 1022.67 1022.64 1022.60 1022.57 1022.55 1022.57 1022.63 1022.74 1022.91 1023.11 1023.34 1023.59 1023.84 1024.06 1024.27 1024.43 1024.54 1024.62
1015.34 1015.79 1016.24 1016.66 1017.07 1017.47 1017.85 1018.24 1018.63 1019.02 1019.41 1019.79 1020.16 1020.51 1020.84 1021.14 1021.42 1021.67 1021.90 1022.10 1022.28 1022.43 1022.54 1022.61 1022.64 1022.64 1022.61 1022.55 1022.48 1022.43 1022.41 1022.43 1022.51 1022.65 1022.86 1023.12 1023.41 1023.72 1024.03 1024.31 1024.56 1024.75 1024.88 1024.94
1015.62 1016.15 1016.67 1017.17 1017.64 1018.08 1018.49 1018.87 1019.23 1019.58 1019.90 1020.21 1020.50 1020.78 1021.04 1021.29 1021.53 1021.75 1021.96 1022.15 1022.32 1022.46 1022.56 1022.62 1022.64 1022.61 1022.55 1022.46 1022.38 1022.31 1022.28 1022.30 1022.40 1022.57 1022.82 1023.13 1023.49 1023.86 1024.22 1024.56 1024.84 1025.05 1025.18 1025.23
1015.86 1016.46 1017.05 1017.61 1018.13 1018.60 1019.02 1019.39 1019.73 1020.03 1020.30 1020.54 1020.77 1020.99 1021.21 1021.42 1021.63 1021.84 1022.04 1022.23 1022.40 1022.54 1022.63 1022.68 1022.68 1022.63 1022.54 1022.43 1022.31 1022.23 1022.19 1022.22 1022.33 1022.52 1022.81 1023.16 1023.56 1023.99 1024.40 1024.78 1025.09 1025.32 1025.45 1025.48
1016.03 1016.70 1017.35 1017.95 1018.50 1018.98 1019.40 1019.76 1020.07 1020.33 1020.56 1020.76 1020.95 1021.14 1021.33 1021.53 1021.74 1021.95 1022.17 1022.37 1022.54 1022.68 1022.78 1022.81 1022.79 1022.72 1022.60 1022.46 1022.33 1022.22 1022.16 1022.19 1022.30 1022.51 1022.82 1023.20 1023.64 1024.09 1024.54 1024.94 1025.27 1025.51 1025.63 1025.64
1016.15 1016.86 1017.54 1018.17 1018.73 1019.22 1019.63 1019.97 1020.25 1020.49 1020.69 1020.87 1021.05 1021.23 1021.42 1021.64 1021.86 1022.10 1022.34 1022.56 1022.75 1022.90 1022.99 1023.02 1022.98 1022.88 1022.74 1022.58 1022.41 1022.28 1022.21 1022.22 1022.32 1022.53 1022.84 1023.23 1023.68 1024.15 1024.61 1025.02 1025.36 1025.60 1025.71 1025.71
1016.23 1016.96 1017.66 1018.29 1018.85 1019.32 1019.72 1020.03 1020.29 1020.51 1020.70 1020.88 1021.06 1021.26 1021.49 1021.73 1021.99 1022.27 1022.53 1022.78 1023.00 1023.15 1023.24 1023.26 1023.21 1023.10 1022.93 1022.74 1022.55 1022.40 1022.30 1022.29 1022.38 1022.57 1022.87 1023.24 1023.68 1024.14 1024.59 1025.00 1025.33 1025.56 1025.67 1025.66
1016.31 1017.05 1017.74 1018.36 1018.90 1019.34 1019.71 1020.00 1020.24 1020.45 1020.64 1020.83 1021.04 1021.27 1021.53 1021.81 1022.12 1022.43 1022.73 1023.00 1023.23 1023.39 1023.49 1023.50 1023.44 1023.31 1023.13 1022.92 1022.71 1022.54 1022.42 1022.39 1022.45 1022.61 1022.88 1023.22 1023.63 1024.06 1024.49 1024.87 1025.19 1025.41 1025.52 1025.51
1016.42 1017.15 1017.82 1018.41 1018.91 1019.32 1019.66 1019.93 1020.15 1020.35 1020.54 1020.75 1020.98 1021.25 1021.54 1021.87 1022.21 1022.55 1022.87 1023.16 1023.39 1023.56 1023.65 1023.66 1023.59 1023.46 1023.27 1023.05 1022.84 1022.66 1022.53 1022.48 1022.51 1022.65 1022.87 1023.18 1023.54 1023.93 1024.31 1024.66 1024.96 1025.16 1025.27 1025.28
1016.58 1017.29 1017.92 1018.47 1018.93 1019.30 1019.60 1019.84 1020.05 1020.25 1020.45 1020.67 1020.92 1021.21 1021.53 1021.88 1022.24 1022.59 1022.92 1023.21 1023.44 1023.61 1023.69 1023.70 1023.63 1023.50 1023.32 1023.12 1022.92 1022.75 1022.62 1022.56 1022.58 1022.69 1022.88 1023.14 1023.44 1023.78 1024.12 1024.43 1024.69 1024.89 1025.00 1025.03
1016.77 1017.45 1018.04 1018.55 1018.96 1019.29 1019.56 1019.78 1019.97 1020.16 1020.37 1020.60 1020.86 1021.16 1021.49 1021.84 1022.19 1022.54 1022.86 1023.14 1023.35 1023.50 1023.59 1023.60 1023.54 1023.43 1023.28 1023.11 1022.95 1022.80 1022.70 1022.65 1022.67 1022.76 1022.92 1023.13 1023.39 1023.67 1023.96 1024.23 1024.47 1024.66 1024.78 1024.83
1016.95 1017.58 1018.14 1018.60 1018.98 1019.28 1019.52 1019.73 1019.91 1020.10 1020.30 1020.53 1020.79 1021.09 1021.41 1021.74 1022.07 1022.39 1022.69 1022.93 1023.13 1023.27 1023.35 1023.37 1023.34 1023.26 1023.16 1023.05 1022.94 1022.85 1022.78 1022.77 1022.80 1022.89 1023.03 1023.21 1023.42 1023.66 1023.91 1024.14 1024.35 1024.53 1024.66 1024.75
1017.05 1017.65 1018.17 1018.60 1018.95 1019.23 1019.46 1019.65 1019.84 1020.02 1020.23 1020.46 1020.71 1020.99 1021.29 1021.59 1021.89 1022.17 1022.42 1022.64 1022.81 1022.94 1023.02 1023.06 1023.07 1023.05 1023.01 1022.97 1022.93 1022.91 1022.91 1022.94 1023.00 1023.10 1023.23 1023.40 1023.58 1023.78 1023.99 1024.20 1024.39 1024.57 1024.72 1024.84
1017.03 1017.59 1018.08 1018.49 1018.82 1019.10 1019.32 1019.53 1019.72 1019.92 1020.13 1020.36 1020.61 1020.87 1021.14 1021.41 1021.66 1021.90 1022.12 1022.30 1022.45 1022.57 1022.66 1022.73 1022.78 1022.83 1022.86 1022.91 1022.95 1023.01 1023.08 1023.17 1023.28 1023.40 1023.54 1023.70 1023.87 1024.05 1024.23 1024.42 1024.61 1024.79 1024.96 1025.11
1016.85 1017.38 1017.84 1018.24 1018.57 1018.85 1019.09 1019.32 1019.53 1019.75 1019.98 1020.22 1020.46 1020.71 1020.96 1021.20 1021.42 1021.62 1021.81 1021.96 1022.10 1022.22 1022.33 1022.44 1022.54 1022.65 1022.77 1022.90 1023.03 1023.17 1023.32 1023.47 1023.62 1023.78 1023.94 1024.10 1024.26 1024.43 1024.61 1024.79 1024.97 1025.16 1025.35 1025.54
Thickness
5665 5668 5670 5671 5675 5679 5677 5678 5677 5674 5664 5658 5653 5645 5635 5629 5624 5620 5617 5615 5613 5609 5607 5604 5601 5599 5596 5594 5590 5587 5582 5578 5573 5569 5565 5560 5554 5550 5545 5541 5536 5531 5526 5522
5663 5671 5669 5666 5671 5673 5669 5669 5670 5662 5648 5647 5641 5635 5623 5616 5612 5607 5603 5601 5598 5595 5591 5588 5585 5582 5580 5577 5574 5570 5566 5561 5556 5552 5548 5543 5538 5533 5528 5523 5519 5514 5509 5504
5649 5664 5667 5655 5655 5657 5653 5653 5655 5644 5635 5634 5623 5617 5609 5605 5601 5595 5590 5586 5582 5579 5576 5572 5569 5566 5564 5561 5558 5554 5550 5545 5541 5537 5532 5527 5522 5517 5512 5507 5502 5497 5493 5488
5641 5644 5630 5637 5652 5652 5643 5637 5640 5632 5623 5616 5607 5599 5593 5592 5588 5582 5578 5573 5568 5565 5561 5557 5555 5552 5549 5547 5543 5539 5535 5531 5527 5522 5517 5512 5507 5502 5497 5491 5487 5482 5478 5473
5630 5629 5630 5624 5629 5632 5629 5617 5620 5615 5607 5600 5595 5588 5576 5574 5573 5569 5564 5560 5556 5552 5549 5545 5542 5539 5536 5533 5530 5526 5522 5518 5513 5508 5503 5498 5493 5487 5482 5477 5473 5469 5463 5458
5621 5612 5605 5603 5621 5631 5625 5602 5607 5605 5598 5595 5593 5581 5564 5559 5557 5554 5550 5547 5544 5540 5537 5534 5530 5527 5525 5522 5518 5514 5510 5505 5500 5495 5490 5484 5479 5474 5469 5464 5459 5455 5450 5445
5612 5605 5599 5605 5619 5625 5601 5587 5594 5595 5591 5587 5579 5570 5556 5550 5546 5543 5540 5536 5534 5531 5527 5524 5521 5518 5514 5511 5506 5502 5497 5492 5487 5482 5477 5472 5466 5461 5456 5451 5446 5441 5437 5432
5603 5594 5586 5600 5606 5595 5586 5589 5587 5584 5578 5571 5562 5553 5547 5542 5537 5534 5530 5527 5524 5522 5519 5515 5512 5509 5504 5500 5495 5491 5486 5480 5474 5469 5465 5460 5454 5448 5443 5438 5434 5430 5425 5421
5596 5588 5591 5595 5592 5590 5589 5583 5579 5574 5568 5561 5553 5545 5540 5534 5530 5526 5523 5519 5517 5514 5510 5507 5503 5499 5494 5490 5485 5480 5475 5469 5463 5458 5453 5448 5443 5438 5434 5428 5424 5420 5416 5411
5595 5589 5590 5589 5587 5585 5582 5577 5573 5567 5560 5554 5546 5539 5532 5528 5523 5519 5516 5514 5511 5507 5503 5499 5495 5490 5486 5481 5476 5470 5465 5459 5455 5449 5443 5439 5434 5430 5425 5419 5414 5410 5406 5402
5590 5586 5584 5580 5579 5576 5572 5569 5564 5558 5552 5545 5538 5532 5526 5522 5517 5514 5512 5509 5505 5501 5496 5492 5488 5483 5479 5474 5469 5463 5458 5453 5449 5444 5438 5433 5426 5418 5414 5405 5400 5396 5394 5392
5581 5582 5579 5572 5573 5571 5565 5560 5554 5548 5541 5536 5531 5525 5520 5516 5513 5510 5507 5503 5499 5495 5491 5486 5482 5478 5473 5468 5463 5457 5452 5448 5444 5440 5435 5431 5423 5414 5405 5400 5394 5389 5385 5382
5586 5583 5577 5571 5567 5563 5558 5552 5547 5540 5534 5528 5523 5520 5516 5512 5508 5505 5501 5498 5493 5489 5485 5481 5477 5472 5468 5463 5458 5452 5447 5443 5440 5436 5433 5428 5422 5415 5406 5397 5391 5388 5385 5383
5584 5578 5568 5564 5559 5555 5550 5544 5539 5533 5527 5523 5518 5515 5512 5508 5505 5501 5496 5493 5489 5485 5481 5477 5473 5468 5464 5460 5455 5450 5446 5441 5436 5434 5430 5426 5421 5416 5410 5404 5397 5392 5387 5385
5581 5574 5566 5560 5554 5547 5542 5537 5531 5526 5521 5517 5514 5511 5508 5504 5499 5496 5492 5489 5485 5481 5477 5473 5469 5465 5461 5457 5453 5449 5445 5440 5436 5433 5429 5425 5421 5416 5411 5405 5400 5395 5392 5390
5575 5569 5562 5554 5548 5542 5537 5532 5527 5521 5518 5514 5511 5507 5504 5500 5495 5492 5488 5485 5481 5476 5472 5468 5464 5462 5459 5456 5452 5449 5444 5436 5435 5433 5430 5425 5421 5416 5411 5406 5401 5397 5395 5393
5569 5561 5555 5549 5544 5539 5534 5529 5524 5520 5515 5511 5508 5504 5500 5496 5492 5488 5485 5481 5477 5472 5468 5464 5461 5459 5457 5454 5451 5451 5446 5440 5433 5433 5431 5426 5421 5417 5412 5408 5404 5400 5397 5394
5572 5564 5557 5550 5543 5537 5532 5528 5523 5518 5514 5511 5507 5502 5498 5494 5490 5486 5483 5479 5475 5471 5466 5463 5458 5456 5456 5453 5450 5449 5449 5445 5441 5436 5431 5426 5421 5418 5414 5410 5407 5403 5401 5399
5569 5562 5555 5549 5543 5537 5532 5526 5522 5518 5514 5510 5505 5501 5497 5493 5489 5486 5483 5480 5475 5470 5465 5462 5456 5456 5456 5453 5448 5450 5451 5448 5443 5438 5433 5424 5424 5420 5417 5414 5410 5407 5405 5404
5564 5559 5553 5547 5542 5536 5530 5525 5521 5517 5514 5510 5505 5501 5497 5493 5490 5486 5483 5479 5474 5469 5466 5461 5460 5460 5457 5454 5450 5454 5453 5449 5445 5440 5436 5431 5427 5423 5420 5417 5414 5411 5409 5408
5561 5556 5550 5544 5538 5533 5529 5524 5520 5516 5513 5510 5506 5501 5497 5494 5492 5488 5484 5480 5473 5470 5467 5463 5461 5459 5458 5452 5452 5455 5454 5451 5447 5443 5438 5434 5430 5426 5423 5421 5418 5416 5413 5412
5557 5552 5546 5541 5536 5531 5527 5523 5520 5517 5513 5510 5507 5503 5499 5495 5493 5489 5485 5481 5476 5469 5470 5469 5463 5456 5454 5451 5457 5459 5455 5452 5449 5445 5440 5436 5433 5429 5426 5424 5421 5419 5417 5416
5554 5549 5544 5538 5534 5530 5526 5523 5520 5517 5514 5511 5508 5504 5502 5500 5499 5495 5488 5483 5479 5472 5471 5466 5460 5457 5454 5457 5462 5459 5455 5452 5450 5447 5442 5438 5435 5432 5429 5426 5424 5422 5421 5421
5551 5546 5541 5537 5533 5528 5524 5522 5520 5518 5516 5514 5511 5508 5505 5503 5501 5497 5487 5480 5478 5476 5472 5467 5464 5461 5459 5462 5464 5462 5458 5454 5452 5449 5445 5441 5437 5434 5431 5429 5427 5426 5425 5423
5548 5544 5539 5535 5530 5527 5525 5522 5520 5518 5517 5515 5513 5510 5510 5509 5505 5500 5493 5486 5480 5479 5477 5472 5469 5468 5467 5470 5467 5462 5457 5453 5450 5449 5447 5445 5442 5438 5435 5432 5431 5429 5427 5426
5545 5542 5538 5534 5532 5529 5527 5524 5522 5520 5519 5517 5515 5514 5513 5510 5506 5502 5497 5494 5491 5484 5484 5481 5480 5476 5476 5474 5469 5466 5461 5457 5456 5453 5449 5447 5443 5440 5437 5435 5433 5432 5429 5428
5543 5540 5535 5534 5532 5531 5530 5527 5526 5524 5523 5520 5518 5517 5515 5513 5510 5507 5505 5502 5499 5496 5495 5493 5491 5488 5483 5478 5473 5470 5466 5462 5459 5456 5453 5450 5447 5444 5441 5438 5436 5434 5432 5430